�������l�o���
Date,Time,MP-1(��Sv/h),MP-2(��Sv/h),MP-3(��Sv/h),MP-4(��Sv/h),MP-5(��Sv/h),MP-6(��Sv/h),MP-7(��Sv/h),MP-8(��Sv/h),����,����(m/s),���J
2024/06/11,00:00,0.505,0.781,0.489,0.964,0.708,0.316,0.552,0.511,��쐼,3.9,��
2024/06/11,00:10,0.508,0.780,0.490,0.962,0.707,0.317,0.555,0.510,��쐼,3.2,��
2024/06/11,00:20,0.506,0.780,0.491,0.964,0.707,0.317,0.555,0.511,�쐼,2.6,��
2024/06/11,00:30,0.509,0.779,0.489,0.964,0.707,0.317,0.555,0.513,�쐼,2.0,��
2024/06/11,00:40,0.508,0.779,0.491,0.963,0.709,0.318,0.554,0.511,-,CALM,��
2024/06/11,00:50,0.509,0.782,0.490,0.962,0.708,0.318,0.555,0.512,-,CALM,��
2024/06/11,01:00,0.510,0.779,0.491,0.962,0.708,0.319,0.555,0.511,��,0.9,��
2024/06/11,01:10,0.507,0.780,0.490,0.965,0.707,0.319,0.555,0.510,�쓌,0.9,��
2024/06/11,01:20,0.509,0.780,0.491,0.961,0.707,0.319,0.555,0.509,���k��,0.6,��
2024/06/11,01:30,0.508,0.781,0.490,0.963,0.707,0.319,0.555,0.511,-,CALM,��
2024/06/11,01:40,0.509,0.779,0.490,0.965,0.708,0.318,0.555,0.511,��쓌,1.1,��
2024/06/11,01:50,0.508,0.783,0.491,0.962,0.708,0.318,0.556,0.512,-,CALM,��
2024/06/11,02:00,0.508,0.780,0.489,0.961,0.709,0.318,0.555,0.511,��,0.6,��
2024/06/11,02:10,0.507,0.782,0.490,0.964,0.709,0.317,0.555,0.513,�쐼,0.6,��
2024/06/11,02:20,0.508,0.780,0.489,0.963,0.707,0.319,0.555,0.511,�쐼,0.9,��
2024/06/11,02:30,0.508,0.780,0.490,0.964,0.709,0.319,0.556,0.511,�쐼,1.2,��
2024/06/11,02:40,0.510,0.779,0.491,0.963,0.708,0.319,0.555,0.511,���k��,1.4,��
2024/06/11,02:50,0.508,0.780,0.490,0.962,0.708,0.319,0.558,0.511,�k�k��,0.9,��
2024/06/11,03:00,0.508,0.777,0.488,0.964,0.707,0.319,0.556,0.510,�k�k��,0.9,��
2024/06/11,03:10,0.508,0.780,0.489,0.962,0.706,0.317,0.555,0.510,�k�k��,0.6,��
2024/06/11,03:20,0.508,0.778,0.489,0.963,0.711,0.319,0.557,0.512,��,0.6,��
2024/06/11,03:30,0.509,0.780,0.489,0.962,0.708,0.317,0.556,0.511,��,0.8,��
2024/06/11,03:40,0.508,0.781,0.489,0.963,0.708,0.318,0.557,0.511,��,0.9,��
2024/06/11,03:50,0.509,0.778,0.490,0.964,0.708,0.318,0.557,0.510,���쓌,0.9,��
2024/06/11,04:00,0.507,0.780,0.489,0.964,0.706,0.318,0.556,0.511,���k��,0.6,��
2024/06/11,04:10,0.507,0.779,0.488,0.965,0.707,0.319,0.557,0.511,�k��,1.5,��
2024/06/11,04:20,0.507,0.777,0.490,0.962,0.708,0.319,0.556,0.512,�k�k��,2.2,��
2024/06/11,04:30,0.507,0.778,0.491,0.963,0.708,0.318,0.556,0.511,�k�k��,0.9,��
2024/06/11,04:40,0.509,0.779,0.488,0.963,0.709,0.318,0.557,0.510,�k,1.1,��
2024/06/11,04:50,0.507,0.779,0.488,0.963,0.708,0.318,0.557,0.511,-,CALM,��
2024/06/11,05:00,0.509,0.779,0.489,0.963,0.707,0.319,0.555,0.511,���쐼,0.6,��
2024/06/11,05:10,0.508,0.780,0.489,0.963,0.706,0.318,0.558,0.511,-,CALM,��
2024/06/11,05:20,0.507,0.779,0.490,0.963,0.706,0.318,0.555,0.511,-,CALM,��
2024/06/11,05:30,0.507,0.778,0.491,0.963,0.709,0.318,0.556,0.511,-,CALM,��
2024/06/11,05:40,0.509,0.779,0.488,0.964,0.708,0.319,0.558,0.510,-,CALM,��
2024/06/11,05:50,0.509,0.780,0.488,0.963,0.709,0.318,0.558,0.512,��쐼,0.9,��
2024/06/11,06:00,0.510,0.780,0.489,0.964,0.707,0.318,0.557,0.511,�쐼,0.9,��
2024/06/11,06:10,0.509,0.779,0.488,0.963,0.706,0.317,0.556,0.511,-,CALM,��
2024/06/11,06:20,0.508,0.776,0.488,0.962,0.706,0.317,0.558,0.510,��쓌,1.1,��
2024/06/11,06:30,0.508,0.777,0.486,0.963,0.705,0.318,0.557,0.511,��쐼,0.9,��
2024/06/11,06:40,0.507,0.777,0.489,0.963,0.706,0.317,0.558,0.510,��쓌,1.9,��
2024/06/11,06:50,0.506,0.777,0.491,0.960,0.705,0.318,0.557,0.512,��쓌,1.5,��
2024/06/11,07:00,0.503,0.777,0.489,0.963,0.706,0.316,0.558,0.512,��쓌,1.7,��
2024/06/11,07:10,0.503,0.777,0.490,0.964,0.706,0.317,0.557,0.510,�쓌,1.2,��
2024/06/11,07:20,0.506,0.777,0.490,0.963,0.708,0.317,0.556,0.512,�쓌,1.5,��
2024/06/11,07:30,0.507,0.778,0.488,0.963,0.707,0.317,0.556,0.512,���쓌,1.2,��
2024/06/11,07:40,0.505,0.777,0.489,0.963,0.706,0.317,0.557,0.509,���쓌,2.0,��
2024/06/11,07:50,0.507,0.776,0.489,0.963,0.706,0.316,0.554,0.509,���쓌,1.7,��
2024/06/11,08:00,0.508,0.776,0.487,0.965,0.706,0.317,0.552,0.509,�쓌,2.3,��
2024/06/11,08:10,0.509,0.776,0.487,0.964,0.704,0.316,0.555,0.510,�쓌,2.5,��
2024/06/11,08:20,0.507,0.779,0.487,0.963,0.704,0.316,0.555,0.510,���쓌,2.5,��
2024/06/11,08:30,0.507,0.777,0.486,0.964,0.705,0.317,0.554,0.509,�쓌,2.6,��
2024/06/11,08:40,0.508,0.779,0.488,0.964,0.705,0.316,0.553,0.510,�쓌,3.0,��
2024/06/11,08:50,0.508,0.780,0.488,0.966,0.708,0.318,0.556,0.510,���쓌,2.6,��
2024/06/11,09:00,0.508,0.779,0.487,0.962,0.705,0.318,0.554,0.511,�쓌,3.3,��
2024/06/11,09:10,0.508,0.782,0.487,0.964,0.707,0.318,0.555,0.508,��쓌,3.9,��
2024/06/11,09:20,0.505,0.779,0.488,0.963,0.705,0.316,0.553,0.510,�쓌,4.5,��
2024/06/11,09:30,0.507,0.781,0.488,0.964,0.704,0.316,0.555,0.509,��쓌,4.9,��
2024/06/11,09:40,0.507,0.778,0.489,0.961,0.706,0.317,0.554,0.510,��쓌,4.4,��
2024/06/11,09:50,0.509,0.780,0.488,0.964,0.707,0.317,0.555,0.510,��쓌,5.3,��
2024/06/11,10:00,0.509,0.780,0.488,0.964,0.706,0.318,0.555,0.510,��쓌,5.3,��
2024/06/11,10:10,0.508,0.779,0.490,0.964,0.706,0.317,0.555,0.510,��쓌,5.3,��
2024/06/11,10:20,0.508,0.780,0.489,0.967,0.706,0.318,0.555,0.510,�쓌,4.9,��
2024/06/11,10:30,0.508,0.779,0.489,0.966,0.707,0.318,0.555,0.510,��쓌,5.6,��
2024/06/11,10:40,0.509,0.780,0.489,0.964,0.706,0.317,0.556,0.510,��쓌,5.7,��
2024/06/11,10:50,0.508,0.781,0.489,0.964,0.709,0.317,0.554,0.510,��쓌,5.8,��
2024/06/11,11:00,0.511,0.780,0.490,0.964,0.706,0.317,0.556,0.508,��쓌,6.8,��
2024/06/11,11:10,0.510,0.781,0.489,0.960,0.706,0.317,0.555,0.510,��쓌,6.8,��
2024/06/11,11:20,0.509,0.781,0.488,0.962,0.705,0.319,0.556,0.510,��쓌,7.4,��
2024/06/11,11:30,0.509,0.779,0.488,0.962,0.705,0.316,0.556,0.509,��쓌,8.1,��
2024/06/11,11:40,0.509,0.780,0.489,0.964,0.708,0.317,0.555,0.508,��쓌,8.3,��
2024/06/11,11:50,0.508,0.779,0.489,0.964,0.708,0.318,0.556,0.510,��,8.1,��
2024/06/11,12:00,0.509,0.780,0.488,0.963,0.709,0.318,0.555,0.510,��,7.9,��
2024/06/11,12:10,0.509,0.779,0.488,0.962,0.710,0.318,0.556,0.510,��쓌,9.1,��
2024/06/11,12:20,0.508,0.779,0.490,0.962,0.708,0.318,0.556,0.509,��쓌,8.2,��
2024/06/11,12:30,0.507,0.780,0.490,0.963,0.709,0.318,0.554,0.509,��쓌,9.0,��
2024/06/11,12:40,0.511,0.783,0.489,0.962,0.708,0.317,0.557,0.510,��쓌,7.3,��
2024/06/11,12:50,0.509,0.781,0.488,0.963,0.708,0.317,0.556,0.510,��쓌,8.7,��
2024/06/11,13:00,0.511,0.782,0.490,0.962,0.710,0.316,0.556,0.511,��쓌,9.5,��
2024/06/11,13:10,0.509,0.781,0.488,0.963,0.709,0.317,0.556,0.509,��쓌,9.4,��
2024/06/11,13:20,0.508,0.781,0.489,0.962,0.711,0.318,0.556,0.509,��쓌,9.6,��
2024/06/11,13:30,0.508,0.780,0.490,0.965,0.709,0.319,0.555,0.510,��쓌,9.0,��
2024/06/11,13:40,0.509,0.781,0.489,0.963,0.708,0.317,0.554,0.509,��쓌,8.5,��
2024/06/11,13:50,0.510,0.781,0.488,0.964,0.708,0.318,0.555,0.509,��쓌,9.7,��
2024/06/11,14:00,0.510,0.784,0.489,0.963,0.703,0.318,0.553,0.510,��쓌,9.9,��
2024/06/11,14:10,0.508,0.782,0.489,0.966,0.708,0.318,0.554,0.509,��쓌,10.3,��
2024/06/11,14:20,0.510,0.781,0.488,0.964,0.707,0.317,0.555,0.510,��쓌,10.2,��
2024/06/11,14:30,0.510,0.781,0.490,0.963,0.706,0.316,0.554,0.510,��쓌,10.0,��
2024/06/11,14:40,0.510,0.781,0.489,0.964,0.708,0.317,0.554,0.510,��쓌,11.6,��
2024/06/11,14:50,0.509,0.780,0.488,0.964,0.709,0.318,0.554,0.510,��쓌,11.7,��
2024/06/11,15:00,0.508,0.782,0.490,0.965,0.709,0.317,0.555,0.510,��쓌,12.4,��
2024/06/11,15:10,0.509,0.782,0.490,0.964,0.710,0.318,0.555,0.510,��쓌,11.3,��
2024/06/11,15:20,0.509,0.780,0.490,0.965,0.710,0.317,0.555,0.510,��,9.7,��
2024/06/11,15:30,0.509,0.781,0.491,0.963,0.711,0.317,0.555,0.510,��쓌,9.5,��
2024/06/11,15:40,0.509,0.782,0.489,0.964,0.712,0.318,0.554,0.509,��쓌,8.2,��
2024/06/11,15:50,0.508,0.780,0.489,0.965,0.711,0.317,0.554,0.509,��쓌,8.0,��
2024/06/11,16:00,0.508,0.782,0.490,0.964,0.711,0.318,0.554,0.509,��쓌,11.3,��
2024/06/11,16:10,0.509,0.781,0.489,0.965,0.710,0.317,0.553,0.510,��쓌,11.6,��
2024/06/11,16:20,0.508,0.779,0.490,0.966,0.711,0.318,0.553,0.509,��,10.2,��
2024/06/11,16:30,0.508,0.781,0.488,0.967,0.712,0.318,0.554,0.511,��,9.2,��
2024/06/11,16:40,0.509,0.778,0.488,0.965,0.712,0.318,0.554,0.510,��,8.8,��
2024/06/11,16:50,0.509,0.779,0.489,0.967,0.712,0.319,0.555,0.509,��,7.2,��
2024/06/11,17:00,0.509,0.780,0.490,0.966,0.710,0.317,0.552,0.509,��쓌,8.3,��
2024/06/11,17:10,0.509,0.782,0.490,0.970,0.712,0.317,0.554,0.510,��쓌,8.0,��
2024/06/11,17:20,0.510,0.782,0.490,0.967,0.710,0.316,0.554,0.510,��쓌,11.3,��
2024/06/11,17:30,0.509,0.783,0.489,0.964,0.713,0.317,0.553,0.510,��쓌,12.8,��
2024/06/11,17:40,0.509,0.782,0.489,0.965,0.709,0.318,0.553,0.509,��쓌,13.3,��
2024/06/11,17:50,0.507,0.783,0.487,0.966,0.710,0.318,0.554,0.509,��쓌,13.5,��
2024/06/11,18:00,0.508,0.785,0.490,0.966,0.711,0.317,0.552,0.510,��쓌,13.3,��
2024/06/11,18:10,0.507,0.783,0.490,0.967,0.710,0.319,0.552,0.512,��쓌,14.2,��
2024/06/11,18:20,0.508,0.782,0.491,0.966,0.709,0.317,0.552,0.511,��쓌,13.3,��
2024/06/11,18:30,0.510,0.781,0.489,0.966,0.711,0.319,0.554,0.511,��쓌,13.3,��
2024/06/11,18:40,0.507,0.781,0.491,0.965,0.710,0.317,0.552,0.512,��쓌,16.0,��
2024/06/11,18:50,0.508,0.779,0.489,0.966,0.710,0.319,0.552,0.511,��쓌,12.0,��
2024/06/11,19:00,0.507,0.781,0.487,0.965,0.710,0.318,0.552,0.511,��,12.0,��
2024/06/11,19:10,0.507,0.781,0.488,0.965,0.710,0.318,0.552,0.512,��,12.0,��
2024/06/11,19:20,0.509,0.783,0.489,0.967,0.712,0.319,0.554,0.513,��,9.0,��
2024/06/11,19:30,0.509,0.782,0.490,0.967,0.711,0.318,0.553,0.511,��,8.8,��
2024/06/11,19:40,0.510,0.783,0.489,0.969,0.711,0.317,0.554,0.512,��,9.0,��
2024/06/11,19:50,0.508,0.784,0.489,0.968,0.712,0.319,0.555,0.511,��,7.5,��
2024/06/11,20:00,0.507,0.784,0.490,0.968,0.711,0.319,0.555,0.513,��,7.4,��
2024/06/11,20:10,0.508,0.785,0.489,0.968,0.712,0.318,0.555,0.511,��,7.7,��
2024/06/11,20:20,0.508,0.785,0.490,0.968,0.711,0.318,0.555,0.511,��,7.4,��
2024/06/11,20:30,0.508,0.784,0.490,0.969,0.713,0.318,0.555,0.513,��,7.8,��
2024/06/11,20:40,0.509,0.784,0.490,0.968,0.712,0.318,0.553,0.512,��,8.3,��
2024/06/11,20:50,0.510,0.783,0.491,0.968,0.712,0.318,0.553,0.512,��,7.8,��
2024/06/11,21:00,0.508,0.786,0.491,0.967,0.714,0.318,0.554,0.511,��,7.5,��
2024/06/11,21:10,0.510,0.783,0.491,0.969,0.712,0.318,0.554,0.513,��,5.5,��
2024/06/11,21:20,0.510,0.781,0.492,0.967,0.712,0.318,0.556,0.512,��,4.9,��
2024/06/11,21:30,0.509,0.782,0.491,0.969,0.712,0.318,0.554,0.511,��,4.5,��
2024/06/11,21:40,0.510,0.782,0.490,0.967,0.711,0.316,0.555,0.512,��,4.6,��
2024/06/11,21:50,0.507,0.784,0.492,0.968,0.711,0.317,0.556,0.512,��,5.0,��
2024/06/11,22:00,0.508,0.783,0.490,0.969,0.710,0.317,0.555,0.512,��,4.5,��
2024/06/11,22:10,0.508,0.783,0.490,0.967,0.711,0.317,0.554,0.511,��,4.4,��
2024/06/11,22:20,0.509,0.783,0.490,0.970,0.710,0.317,0.555,0.510,��,5.3,��
2024/06/11,22:30,0.510,0.784,0.491,0.968,0.713,0.317,0.554,0.513,��,4.8,��
2024/06/11,22:40,0.507,0.784,0.493,0.968,0.713,0.318,0.555,0.512,��쐼,5.0,�L
2024/06/11,22:50,0.508,0.785,0.493,0.970,0.713,0.317,0.556,0.510,��쐼,4.5,��
2024/06/11,23:00,0.509,0.782,0.491,0.968,0.712,0.320,0.557,0.512,��쐼,4.6,��
2024/06/11,23:10,0.508,0.780,0.491,0.969,0.712,0.320,0.557,0.511,��쐼,3.5,��
2024/06/11,23:20,0.510,0.781,0.493,0.971,0.713,0.317,0.556,0.511,��,3.8,��
2024/06/11,23:30,0.508,0.783,0.491,0.969,0.711,0.318,0.555,0.513,��,4.8,��
2024/06/11,23:40,0.512,0.783,0.490,0.971,0.713,0.317,0.557,0.511,��,5.4,��
2024/06/11,23:50,0.510,0.783,0.492,0.968,0.712,0.318,0.556,0.513,��,5.2,��
